Location: Crescent
(42.8242°N, 73.7329°W)
Time: 19:47:37
(UTC+00:00)

Courier 1B - Pass Details

Date: 25 February 2026
Orbit: 962 x 1208 km, 28.3° (Epoch: 11 March)

Event Time Altitude Azimuth Distance (km) Brightness Sun altitude
Rises 02:24:10 0° 254° (WSW) 3,888 11.1 -40.9°
Reaches altitude 10° 02:28:06 10° 234° (SW) 2,980 10.2 -41.5°
Enters shadow 02:28:36 11° 231° (SW) 2,898 10.1 -41.6°
